sat.trackr.live / text

‹ back to catalog

STARLINK-36864

NORAD 68045 · 2026-041F

PAYLOAD ACTIVE UNKNOWN

§ Identity

Operator
Country
US
Launch date
2026-03-02
Launch site
AFETR
Launch vehicle
Mass (kg)
RCS (m²)

Purposes: comms

External: N2YO · Heavens-Above · Gunter

§ Orbital elements

Epoch: 2026-05-25T02:54:09.725760Z

Period
93.85 min
Inclination
53.1593°
Eccentricity
0.0001186
Mean motion
15.34400398 rev/d
Perigee alt
461.9 km
Apogee alt
463.5 km
Semi-major
6,840.8 km
B*
8.2510e-4
RAAN
53.2101°
Arg perigee
86.2825°
Mean anomaly
273.8313°
Rev number
1,311

§ Raw data

STARLINK-368641 68045U 26041F   26145.12094590  .00027604  00000+0  82510-3 0  99912 68045  53.1593  53.2101 0001186  86.2825 273.8313 15.34400398 13110

JSON: /api/v1/satellites/68045 · /tle

For live sub-satellite position, see the globe view (requires WebGL).

§ Visibility from observer

Set your observer location to see the next 7 days of passes ≥ 10°. The values pass through the URL so the page stays shareable.

No JS? Fill the form by hand. The geolocation button needs JavaScript.